owner,sensor,date,latitude,longitude,air_pressure(mBar),qcFlag 
WAVCIS,ioos:station:WAVCIS:CSI16:1,2009-03-02T02:00:00Z,29.4012,-89.0355,1016.12,11111222 
WAVCIS,ioos:station:WAVCIS:CSI16:1,2009-03-02T13:00:00Z,29.4012,-89.0355,1016.98,11111222 
WAVCIS,ioos:station:WAVCIS:CSI16:1,2009-03-03T11:00:00Z,29.4012,-89.0355,1018.73,11111222 
WAVCIS,ioos:station:WAVCIS:CSI16:1,2009-03-03T23:00:00Z,29.4012,-89.0355,1019.94,11111222 
WAVCIS,ioos:station:WAVCIS:CSI16:1,2009-03-04T09:00:00Z,29.4012,-89.0355,1019.34,11111222 
WAVCIS,ioos:station:WAVCIS:CSI16:1,2009-03-04T20:00:00Z,29.4012,-89.0355,1021.43,11111222 
WAVCIS,ioos:station:WAVCIS:CSI16:1,2009-03-05T06:00:00Z,29.4012,-89.0355,1020.46,11111222 
WAVCIS,ioos:station:WAVCIS:CSI16:1,2009-03-05T17:00:00Z,29.4012,-89.0355,1023.15,11111222 
WAVCIS,ioos:station:WAVCIS:CSI16:1,2009-03-05T23:00:00Z,29.4012,-89.0355,1020.75,11111222 
WAVCIS,ioos:station:WAVCIS:CSI16:1,2009-03-06T00:00:00Z,29.4012,-89.0355,1020.71,11111222 
WAVCIS,ioos:station:WAVCIS:CSI16:1,2009-03-06T05:00:00Z,29.4012,-89.0355,1021.23,11111222 
WAVCIS,ioos:station:WAVCIS:CSI16:1,2009-03-06T14:00:00Z,29.4012,-89.0355,1021.36,11111222 
WAVCIS,ioos:station:WAVCIS:CSI16:1,2009-03-06T16:00:00Z,29.4012,-89.0355,1022.63,11111222 
WAVCIS,ioos:station:WAVCIS:CSI16:1,2009-03-06T17:00:00Z,29.4012,-89.0355,1023.37,11111222 
WAVCIS,ioos:station:WAVCIS:CSI16:1,2009-03-06T18:00:00Z,29.4012,-89.0355,1022.38,11111222 
WAVCIS,ioos:station:WAVCIS:CSI16:1,2009-03-06T19:00:00Z,29.4012,-89.0355,1021.59,11111222 
WAVCIS,ioos:station:WAVCIS:CSI16:1,2009-03-06T20:00:00Z,29.4012,-89.0355,1020.93,11111222 
WAVCIS,ioos:station:WAVCIS:CSI16:1,2009-03-06T21:00:00Z,29.4012,-89.0355,1020.64,11111222 
WAVCIS,ioos:station:WAVCIS:CSI16:1,2009-03-06T22:00:00Z,29.4012,-89.0355,1020.17,11111222 
WAVCIS,ioos:station:WAVCIS:CSI16:1,2009-03-06T23:00:00Z,29.4012,-89.0355,1020.13,11111222 
WAVCIS,ioos:station:WAVCIS:CSI16:1,2009-03-07T00:00:00Z,29.4012,-89.0355,1019.88,11111222 
WAVCIS,ioos:station:WAVCIS:CSI16:1,2009-03-07T01:00:00Z,29.4012,-89.0355,1019.86,11111222 
WAVCIS,ioos:station:WAVCIS:CSI16:1,2009-03-07T02:00:00Z,29.4012,-89.0355,1019.94,11111222 
WAVCIS,ioos:station:WAVCIS:CSI16:1,2009-03-07T03:00:00Z,29.4012,-89.0355,1020.23,11111222 
WAVCIS,ioos:station:WAVCIS:CSI16:1,2009-03-07T04:00:00Z,29.4012,-89.0355,1020.02,11111222 
WAVCIS,ioos:station:WAVCIS:CSI16:1,2009-03-07T05:00:00Z,29.4012,-89.0355,1019.77,11111222 
WAVCIS,ioos:station:WAVCIS:CSI16:1,2009-03-07T06:00:00Z,29.4012,-89.0355,1019.25,11111222 
WAVCIS,ioos:station:WAVCIS:CSI16:1,2009-03-07T07:00:00Z,29.4012,-89.0355,1018.9,11111222 
WAVCIS,ioos:station:WAVCIS:CSI16:1,2009-03-07T13:00:00Z,29.4012,-89.0355,1018.65,11111222 
WAVCIS,ioos:station:WAVCIS:CSI16:1,2009-03-07T14:00:00Z,29.4012,-89.0355,1019.02,11111222 
WAVCIS,ioos:station:WAVCIS:CSI16:1,2009-03-07T15:00:00Z,29.4012,-89.0355,1019.42,11111222 
WAVCIS,ioos:station:WAVCIS:CSI16:1,2009-03-07T16:00:00Z,29.4012,-89.0355,1019.55,11111222 
WAVCIS,ioos:station:WAVCIS:CSI16:1,2009-03-07T17:00:00Z,29.4012,-89.0355,1019.9,11111222 
WAVCIS,ioos:station:WAVCIS:CSI16:1,2009-03-07T18:00:00Z,29.4012,-89.0355,1019.58,11111222 
WAVCIS,ioos:station:WAVCIS:CSI16:1,2009-03-07T19:00:00Z,29.4012,-89.0355,1018.54,11111222 
WAVCIS,ioos:station:WAVCIS:CSI16:1,2009-03-07T20:00:00Z,29.4012,-89.0355,1017.75,11111222 
WAVCIS,ioos:station:WAVCIS:CSI16:1,2009-03-07T21:00:00Z,29.4012,-89.0355,1017.35,11111222 
WAVCIS,ioos:station:WAVCIS:CSI16:1,2009-03-07T22:00:00Z,29.4012,-89.0355,1017.1,11111222 
WAVCIS,ioos:station:WAVCIS:CSI16:1,2009-03-07T23:00:00Z,29.4012,-89.0355,1017.12,11111222 
WAVCIS,ioos:station:WAVCIS:CSI16:1,2009-03-08T00:00:00Z,29.4012,-89.0355,1017.03,11111222 
WAVCIS,ioos:station:WAVCIS:CSI16:1,2009-03-08T01:00:00Z,29.4012,-89.0355,1016.81,11111222 
WAVCIS,ioos:station:WAVCIS:CSI16:1,2009-03-08T02:00:00Z,29.4012,-89.0355,1017.03,11111222 
WAVCIS,ioos:station:WAVCIS:CSI16:1,2009-03-08T03:00:00Z,29.4012,-89.0355,1017.04,11111222 
WAVCIS,ioos:station:WAVCIS:CSI16:1,2009-03-08T04:00:00Z,29.4012,-89.0355,1016.8,11111222 
WAVCIS,ioos:station:WAVCIS:CSI16:1,2009-03-08T05:00:00Z,29.4012,-89.0355,1016.58,11111222 
WAVCIS,ioos:station:WAVCIS:CSI16:1,2009-03-08T06:00:00Z,29.4012,-89.0355,1015.86,11111222 
WAVCIS,ioos:station:WAVCIS:CSI16:1,2009-03-08T07:00:00Z,29.4012,-89.0355,1015.25,11111222 
WAVCIS,ioos:station:WAVCIS:CSI16:1,2009-03-08T08:00:00Z,29.4012,-89.0355,1014.36,11111222 
WAVCIS,ioos:station:WAVCIS:CSI16:1,2009-03-08T09:00:00Z,29.4012,-89.0355,1014.18,11111222 
WAVCIS,ioos:station:WAVCIS:CSI16:1,2009-03-08T10:00:00Z,29.4012,-89.0355,1013.87,11111222 
WAVCIS,ioos:station:WAVCIS:CSI16:1,2009-03-08T11:00:00Z,29.4012,-89.0355,1014.0,11111222 
WAVCIS,ioos:station:WAVCIS:CSI16:1,2009-03-08T12:00:00Z,29.4012,-89.0355,1014.34,11111222 
WAVCIS,ioos:station:WAVCIS:CSI16:1,2009-03-08T13:00:00Z,29.4012,-89.0355,1014.84,11111222 
WAVCIS,ioos:station:WAVCIS:CSI16:1,2009-03-08T14:00:00Z,29.4012,-89.0355,1015.98,11111222 
WAVCIS,ioos:station:WAVCIS:CSI16:1,2009-03-08T15:00:00Z,29.4012,-89.0355,1016.81,11111222 
WAVCIS,ioos:station:WAVCIS:CSI16:1,2009-03-08T16:00:00Z,29.4012,-89.0355,1017.17,11111222 
WAVCIS,ioos:station:WAVCIS:CSI16:1,2009-03-08T17:00:00Z,29.4012,-89.0355,1017.43,11111222 
WAVCIS,ioos:station:WAVCIS:CSI16:1,2009-03-08T18:00:00Z,29.4012,-89.0355,1017.08,11111222 
WAVCIS,ioos:station:WAVCIS:CSI16:1,2009-03-08T19:00:00Z,29.4012,-89.0355,1016.52,11111222 
WAVCIS,ioos:station:WAVCIS:CSI16:1,2009-03-08T20:00:00Z,29.4012,-89.0355,1015.87,11111222 
WAVCIS,ioos:station:WAVCIS:CSI16:1,2009-03-08T21:00:00Z,29.4012,-89.0355,1015.69,11111222 
WAVCIS,ioos:station:WAVCIS:CSI16:1,2009-03-08T22:00:00Z,29.4012,-89.0355,1015.42,11111222 
WAVCIS,ioos:station:WAVCIS:CSI16:1,2009-03-08T23:00:00Z,29.4012,-89.0355,1015.56,11111222 
WAVCIS,ioos:station:WAVCIS:CSI16:1,2009-03-09T00:00:00Z,29.4012,-89.0355,1015.64,11111222 
WAVCIS,ioos:station:WAVCIS:CSI16:1,2009-03-09T01:00:00Z,29.4012,-89.0355,1015.39,11111222 
WAVCIS,ioos:station:WAVCIS:CSI16:1,2009-03-09T02:00:00Z,29.4012,-89.0355,1015.56,11111222 
WAVCIS,ioos:station:WAVCIS:CSI16:1,2009-03-09T03:00:00Z,29.4012,-89.0355,1015.97,11111222 
WAVCIS,ioos:station:WAVCIS:CSI16:1,2009-03-09T04:00:00Z,29.4012,-89.0355,1016.18,11111222 
WAVCIS,ioos:station:WAVCIS:CSI16:1,2009-03-09T05:00:00Z,29.4012,-89.0355,1016.06,11111222 
WAVCIS,ioos:station:WAVCIS:CSI16:1,2009-03-09T06:00:00Z,29.4012,-89.0355,1016.0,11111222 
WAVCIS,ioos:station:WAVCIS:CSI16:1,2009-03-09T07:00:00Z,29.4012,-89.0355,1015.92,11111222 
WAVCIS,ioos:station:WAVCIS:CSI16:1,2009-03-09T08:00:00Z,29.4012,-89.0355,1015.6,11111222 
WAVCIS,ioos:station:WAVCIS:CSI16:1,2009-03-09T09:00:00Z,29.4012,-89.0355,1015.2,11111222 
WAVCIS,ioos:station:WAVCIS:CSI16:1,2009-03-09T10:00:00Z,29.4012,-89.0355,1015.26,11111222 
WAVCIS,ioos:station:WAVCIS:CSI16:1,2009-03-09T11:00:00Z,29.4012,-89.0355,1015.65,11111222 
WAVCIS,ioos:station:WAVCIS:CSI16:1,2009-03-09T12:00:00Z,29.4012,-89.0355,1016.23,11111222 
WAVCIS,ioos:station:WAVCIS:CSI16:1,2009-03-09T13:00:00Z,29.4012,-89.0355,1017.05,11111222 
WAVCIS,ioos:station:WAVCIS:CSI16:1,2009-03-09T14:00:00Z,29.4012,-89.0355,1017.61,11111222 
WAVCIS,ioos:station:WAVCIS:CSI16:1,2009-03-09T15:00:00Z,29.4012,-89.0355,1018.42,11111222 
WAVCIS,ioos:station:WAVCIS:CSI16:1,2009-03-09T16:00:00Z,29.4012,-89.0355,1018.93,11111222 
WAVCIS,ioos:station:WAVCIS:CSI16:1,2009-03-09T17:00:00Z,29.4012,-89.0355,1018.99,11111222 
WAVCIS,ioos:station:WAVCIS:CSI16:1,2009-03-09T18:00:00Z,29.4012,-89.0355,1018.9,11111222 
WAVCIS,ioos:station:WAVCIS:CSI16:1,2009-03-09T19:00:00Z,29.4012,-89.0355,1018.3,11111222 
WAVCIS,ioos:station:WAVCIS:CSI16:1,2009-03-09T20:00:00Z,29.4012,-89.0355,1017.37,11111222 
WAVCIS,ioos:station:WAVCIS:CSI16:1,2009-03-09T21:00:00Z,29.4012,-89.0355,1016.87,11111222 
WAVCIS,ioos:station:WAVCIS:CSI16:1,2009-03-09T22:00:00Z,29.4012,-89.0355,1016.43,11111222 
WAVCIS,ioos:station:WAVCIS:CSI16:1,2009-03-09T23:00:00Z,29.4012,-89.0355,1016.46,11111222 
WAVCIS,ioos:station:WAVCIS:CSI16:1,2009-03-10T00:00:00Z,29.4012,-89.0355,1016.6,11111222 
WAVCIS,ioos:station:WAVCIS:CSI16:1,2009-03-10T01:00:00Z,29.4012,-89.0355,1016.7,11111222 
WAVCIS,ioos:station:WAVCIS:CSI16:1,2009-03-10T02:00:00Z,29.4012,-89.0355,1016.78,11111222 
WAVCIS,ioos:station:WAVCIS:CSI16:1,2009-03-10T03:00:00Z,29.4012,-89.0355,1016.8,11111222 
WAVCIS,ioos:station:WAVCIS:CSI16:1,2009-03-10T04:00:00Z,29.4012,-89.0355,1016.64,11111222 
WAVCIS,ioos:station:WAVCIS:CSI16:1,2009-03-10T05:00:00Z,29.4012,-89.0355,1016.42,11111222 
WAVCIS,ioos:station:WAVCIS:CSI16:1,2009-03-10T06:00:00Z,29.4012,-89.0355,1015.87,11111222 
WAVCIS,ioos:station:WAVCIS:CSI16:1,2009-03-10T07:00:00Z,29.4012,-89.0355,1015.47,11111222 
WAVCIS,ioos:station:WAVCIS:CSI16:1,2009-03-10T08:00:00Z,29.4012,-89.0355,1014.99,11111222 
WAVCIS,ioos:station:WAVCIS:CSI16:1,2009-03-10T09:00:00Z,29.4012,-89.0355,1014.49,11111222 
WAVCIS,ioos:station:WAVCIS:CSI16:1,2009-03-10T10:00:00Z,29.4012,-89.0355,1014.18,11111222 
WAVCIS,ioos:station:WAVCIS:CSI16:1,2009-03-10T11:00:00Z,29.4012,-89.0355,1014.52,11111222 
WAVCIS,ioos:station:WAVCIS:CSI16:1,2009-03-10T12:00:00Z,29.4012,-89.0355,1014.51,11111222 
WAVCIS,ioos:station:WAVCIS:CSI16:1,2009-03-10T13:00:00Z,29.4012,-89.0355,1014.94,11111222 
WAVCIS,ioos:station:WAVCIS:CSI16:1,2009-03-10T14:00:00Z,29.4012,-89.0355,1015.55,11111222 
WAVCIS,ioos:station:WAVCIS:CSI16:1,2009-03-10T15:00:00Z,29.4012,-89.0355,1016.01,11111222 
WAVCIS,ioos:station:WAVCIS:CSI16:1,2009-03-10T16:00:00Z,29.4012,-89.0355,1016.43,11111222 
WAVCIS,ioos:station:WAVCIS:CSI16:1,2009-03-10T17:00:00Z,29.4012,-89.0355,1016.67,11111222 
WAVCIS,ioos:station:WAVCIS:CSI16:1,2009-03-10T18:00:00Z,29.4012,-89.0355,1016.44,11111222 
WAVCIS,ioos:station:WAVCIS:CSI16:1,2009-03-10T19:00:00Z,29.4012,-89.0355,1015.79,11111222 
WAVCIS,ioos:station:WAVCIS:CSI16:1,2009-03-10T20:00:00Z,29.4012,-89.0355,1015.38,11111222 
WAVCIS,ioos:station:WAVCIS:CSI16:1,2009-03-10T21:00:00Z,29.4012,-89.0355,1015.17,11111222 
WAVCIS,ioos:station:WAVCIS:CSI16:1,2009-03-10T22:00:00Z,29.4012,-89.0355,1014.72,11111222 
WAVCIS,ioos:station:WAVCIS:CSI16:1,2009-03-10T23:00:00Z,29.4012,-89.0355,1014.92,11111222 
WAVCIS,ioos:station:WAVCIS:CSI16:1,2009-03-11T00:00:00Z,29.4012,-89.0355,1015.25,11111222 
WAVCIS,ioos:station:WAVCIS:CSI16:1,2009-03-11T01:00:00Z,29.4012,-89.0355,1015.58,11111222 
WAVCIS,ioos:station:WAVCIS:CSI16:1,2009-03-11T02:00:00Z,29.4012,-89.0355,1015.98,11111222 
WAVCIS,ioos:station:WAVCIS:CSI16:1,2009-03-11T03:00:00Z,29.4012,-89.0355,1016.31,11111222 
WAVCIS,ioos:station:WAVCIS:CSI16:1,2009-03-11T04:00:00Z,29.4012,-89.0355,1016.2,11111222 
WAVCIS,ioos:station:WAVCIS:CSI16:1,2009-03-11T05:00:00Z,29.4012,-89.0355,1015.95,11111222 
WAVCIS,ioos:station:WAVCIS:CSI16:1,2009-03-11T06:00:00Z,29.4012,-89.0355,1015.73,11111222 
WAVCIS,ioos:station:WAVCIS:CSI16:1,2009-03-11T07:00:00Z,29.4012,-89.0355,1015.67,11111222 
WAVCIS,ioos:station:WAVCIS:CSI16:1,2009-03-11T08:00:00Z,29.4012,-89.0355,1015.44,11111222 
WAVCIS,ioos:station:WAVCIS:CSI16:1,2009-03-11T09:00:00Z,29.4012,-89.0355,1015.13,11111222 
WAVCIS,ioos:station:WAVCIS:CSI16:1,2009-03-11T10:00:00Z,29.4012,-89.0355,1014.71,11111222 
WAVCIS,ioos:station:WAVCIS:CSI16:1,2009-03-11T11:00:00Z,29.4012,-89.0355,1015.24,11111222 
WAVCIS,ioos:station:WAVCIS:CSI16:1,2009-03-11T12:00:00Z,29.4012,-89.0355,1016.0,11111222 
WAVCIS,ioos:station:WAVCIS:CSI16:1,2009-03-11T13:00:00Z,29.4012,-89.0355,1016.41,11111222 
WAVCIS,ioos:station:WAVCIS:CSI16:1,2009-03-11T14:00:00Z,29.4012,-89.0355,1017.09,11111222 
WAVCIS,ioos:station:WAVCIS:CSI16:1,2009-03-11T15:00:00Z,29.4012,-89.0355,1018.27,11111222 
WAVCIS,ioos:station:WAVCIS:CSI16:1,2009-03-11T16:00:00Z,29.4012,-89.0355,1019.44,11111222 
WAVCIS,ioos:station:WAVCIS:CSI16:1,2009-03-11T17:00:00Z,29.4012,-89.0355,1020.0,11111222 
WAVCIS,ioos:station:WAVCIS:CSI16:1,2009-03-11T18:00:00Z,29.4012,-89.0355,1019.64,11111222 
WAVCIS,ioos:station:WAVCIS:CSI16:1,2009-03-11T19:00:00Z,29.4012,-89.0355,1018.37,11111222 
WAVCIS,ioos:station:WAVCIS:CSI16:1,2009-03-11T20:00:00Z,29.4012,-89.0355,1017.51,11111222 
WAVCIS,ioos:station:WAVCIS:CSI16:1,2009-03-11T21:00:00Z,29.4012,-89.0355,1017.08,11111222 
WAVCIS,ioos:station:WAVCIS:CSI16:1,2009-03-11T22:00:00Z,29.4012,-89.0355,1016.46,11111222 
WAVCIS,ioos:station:WAVCIS:CSI16:1,2009-03-11T23:00:00Z,29.4012,-89.0355,1016.49,11111222 
WAVCIS,ioos:station:WAVCIS:CSI16:1,2009-03-12T00:00:00Z,29.4012,-89.0355,1016.52,11111222 
WAVCIS,ioos:station:WAVCIS:CSI16:1,2009-03-12T01:00:00Z,29.4012,-89.0355,1016.9,11111222 
WAVCIS,ioos:station:WAVCIS:CSI16:1,2009-03-12T02:00:00Z,29.4012,-89.0355,1017.19,11111222 
WAVCIS,ioos:station:WAVCIS:CSI16:1,2009-03-12T03:00:00Z,29.4012,-89.0355,1017.38,11111222 
WAVCIS,ioos:station:WAVCIS:CSI16:1,2009-03-12T04:00:00Z,29.4012,-89.0355,1017.29,11111222 
WAVCIS,ioos:station:WAVCIS:CSI16:1,2009-03-12T05:00:00Z,29.4012,-89.0355,1017.01,11111222 
WAVCIS,ioos:station:WAVCIS:CSI16:1,2009-03-12T06:00:00Z,29.4012,-89.0355,1016.6,11111222 
WAVCIS,ioos:station:WAVCIS:CSI16:1,2009-03-12T07:00:00Z,29.4012,-89.0355,1016.35,11111222 
WAVCIS,ioos:station:WAVCIS:CSI16:1,2009-03-12T08:00:00Z,29.4012,-89.0355,1016.45,11111222 
WAVCIS,ioos:station:WAVCIS:CSI16:1,2009-03-12T09:00:00Z,29.4012,-89.0355,1016.15,11111222 
WAVCIS,ioos:station:WAVCIS:CSI16:1,2009-03-12T10:00:00Z,29.4012,-89.0355,1016.08,11111222 
WAVCIS,ioos:station:WAVCIS:CSI16:1,2009-03-12T11:00:00Z,29.4012,-89.0355,1015.85,11111222 
WAVCIS,ioos:station:WAVCIS:CSI16:1,2009-03-12T12:00:00Z,29.4012,-89.0355,1017.01,11111222 
WAVCIS,ioos:station:WAVCIS:CSI16:1,2009-03-12T13:00:00Z,29.4012,-89.0355,1017.24,11111222 
WAVCIS,ioos:station:WAVCIS:CSI16:1,2009-03-12T14:00:00Z,29.4012,-89.0355,1017.86,11111222 
WAVCIS,ioos:station:WAVCIS:CSI16:1,2009-03-12T15:00:00Z,29.4012,-89.0355,1018.24,11111222 
WAVCIS,ioos:station:WAVCIS:CSI16:1,2009-03-12T16:00:00Z,29.4012,-89.0355,1018.59,11111222 
WAVCIS,ioos:station:WAVCIS:CSI16:1,2009-03-12T17:00:00Z,29.4012,-89.0355,1018.37,11111222 
WAVCIS,ioos:station:WAVCIS:CSI16:1,2009-03-12T18:00:00Z,29.4012,-89.0355,1018.57,11111222 
WAVCIS,ioos:station:WAVCIS:CSI16:1,2009-03-12T19:00:00Z,29.4012,-89.0355,1017.28,11111222 
WAVCIS,ioos:station:WAVCIS:CSI16:1,2009-03-12T20:00:00Z,29.4012,-89.0355,1016.6,11111222 
WAVCIS,ioos:station:WAVCIS:CSI16:1,2009-03-12T21:00:00Z,29.4012,-89.0355,1016.16,11111222 
WAVCIS,ioos:station:WAVCIS:CSI16:1,2009-03-12T22:00:00Z,29.4012,-89.0355,1015.96,11111222 
WAVCIS,ioos:station:WAVCIS:CSI16:1,2009-03-12T23:00:00Z,29.4012,-89.0355,1015.7,11111222 
WAVCIS,ioos:station:WAVCIS:CSI16:1,2009-03-13T00:00:00Z,29.4012,-89.0355,1016.13,11111222 
WAVCIS,ioos:station:WAVCIS:CSI16:1,2009-03-13T01:00:00Z,29.4012,-89.0355,1016.56,11111222 
WAVCIS,ioos:station:WAVCIS:CSI16:1,2009-03-13T02:00:00Z,29.4012,-89.0355,1016.63,11111222 
WAVCIS,ioos:station:WAVCIS:CSI16:1,2009-03-13T03:00:00Z,29.4012,-89.0355,1016.73,11111222 
WAVCIS,ioos:station:WAVCIS:CSI16:1,2009-03-13T04:00:00Z,29.4012,-89.0355,1016.32,11111222 
WAVCIS,ioos:station:WAVCIS:CSI16:1,2009-03-13T05:00:00Z,29.4012,-89.0355,1015.95,11111222 
WAVCIS,ioos:station:WAVCIS:CSI16:1,2009-03-13T06:00:00Z,29.4012,-89.0355,1015.26,11111222 
WAVCIS,ioos:station:WAVCIS:CSI16:1,2009-03-13T07:00:00Z,29.4012,-89.0355,1015.22,11111222 
WAVCIS,ioos:station:WAVCIS:CSI16:1,2009-03-13T08:00:00Z,29.4012,-89.0355,1014.88,11111222 
WAVCIS,ioos:station:WAVCIS:CSI16:1,2009-03-13T09:00:00Z,29.4012,-89.0355,1014.91,11111222 
WAVCIS,ioos:station:WAVCIS:CSI16:1,2009-03-13T10:00:00Z,29.4012,-89.0355,1014.87,11111222 
WAVCIS,ioos:station:WAVCIS:CSI16:1,2009-03-13T11:00:00Z,29.4012,-89.0355,1014.49,11111222 
WAVCIS,ioos:station:WAVCIS:CSI16:1,2009-03-13T12:00:00Z,29.4012,-89.0355,1014.67,11111222 
WAVCIS,ioos:station:WAVCIS:CSI16:1,2009-03-13T13:00:00Z,29.4012,-89.0355,1014.99,11111222 
WAVCIS,ioos:station:WAVCIS:CSI16:1,2009-03-13T14:00:00Z,29.4012,-89.0355,1015.46,11111222 
WAVCIS,ioos:station:WAVCIS:CSI16:1,2009-03-13T15:00:00Z,29.4012,-89.0355,1015.88,11111222 
WAVCIS,ioos:station:WAVCIS:CSI16:1,2009-03-13T16:00:00Z,29.4012,-89.0355,1015.98,11111222 
WAVCIS,ioos:station:WAVCIS:CSI16:1,2009-03-13T17:00:00Z,29.4012,-89.0355,1015.66,11111222 
WAVCIS,ioos:station:WAVCIS:CSI16:1,2009-03-13T18:00:00Z,29.4012,-89.0355,1015.41,11111222 
WAVCIS,ioos:station:WAVCIS:CSI16:1,2009-03-13T19:00:00Z,29.4012,-89.0355,1014.59,11111222 
WAVCIS,ioos:station:WAVCIS:CSI16:1,2009-03-13T20:00:00Z,29.4012,-89.0355,1013.54,11111222 
WAVCIS,ioos:station:WAVCIS:CSI16:1,2009-03-13T21:00:00Z,29.4012,-89.0355,1012.89,11111222 
WAVCIS,ioos:station:WAVCIS:CSI16:1,2009-03-13T22:00:00Z,29.4012,-89.0355,1012.45,11111222 
WAVCIS,ioos:station:WAVCIS:CSI16:1,2009-03-13T23:00:00Z,29.4012,-89.0355,1012.23,11111222 
WAVCIS,ioos:station:WAVCIS:CSI16:1,2009-03-14T00:00:00Z,29.4012,-89.0355,1012.0,11111222 
WAVCIS,ioos:station:WAVCIS:CSI16:1,2009-03-14T01:00:00Z,29.4012,-89.0355,1011.86,11111222 
WAVCIS,ioos:station:WAVCIS:CSI16:1,2009-03-14T02:00:00Z,29.4012,-89.0355,1011.74,11111222 
WAVCIS,ioos:station:WAVCIS:CSI16:1,2009-03-14T03:00:00Z,29.4012,-89.0355,1012.12,11111222 
WAVCIS,ioos:station:WAVCIS:CSI16:1,2009-03-14T04:00:00Z,29.4012,-89.0355,1011.78,11111222 
WAVCIS,ioos:station:WAVCIS:CSI16:1,2009-03-14T05:00:00Z,29.4012,-89.0355,1011.38,11111222 
WAVCIS,ioos:station:WAVCIS:CSI16:1,2009-03-14T06:00:00Z,29.4012,-89.0355,1011.03,11111222 
WAVCIS,ioos:station:WAVCIS:CSI16:1,2009-03-14T07:00:00Z,29.4012,-89.0355,1010.61,11111222 
WAVCIS,ioos:station:WAVCIS:CSI16:1,2009-03-14T08:00:00Z,29.4012,-89.0355,1010.28,11111222 
WAVCIS,ioos:station:WAVCIS:CSI16:1,2009-03-14T09:00:00Z,29.4012,-89.0355,1009.66,11111222 
WAVCIS,ioos:station:WAVCIS:CSI16:1,2009-03-14T10:00:00Z,29.4012,-89.0355,1009.63,11111222 
WAVCIS,ioos:station:WAVCIS:CSI16:1,2009-03-14T11:00:00Z,29.4012,-89.0355,1009.67,11111222 
WAVCIS,ioos:station:WAVCIS:CSI16:1,2009-03-14T12:00:00Z,29.4012,-89.0355,1010.23,11111222 
WAVCIS,ioos:station:WAVCIS:CSI16:1,2009-03-14T13:00:00Z,29.4012,-89.0355,1010.53,11111222 
WAVCIS,ioos:station:WAVCIS:CSI16:1,2009-03-14T14:00:00Z,29.4012,-89.0355,1011.27,11111222 
WAVCIS,ioos:station:WAVCIS:CSI16:1,2009-03-14T15:00:00Z,29.4012,-89.0355,1012.19,11111222 
WAVCIS,ioos:station:WAVCIS:CSI16:1,2009-03-14T16:00:00Z,29.4012,-89.0355,1012.44,11111222 
WAVCIS,ioos:station:WAVCIS:CSI16:1,2009-03-14T17:00:00Z,29.4012,-89.0355,1012.38,11111222 
WAVCIS,ioos:station:WAVCIS:CSI16:1,2009-03-14T18:00:00Z,29.4012,-89.0355,1011.61,11111222 
WAVCIS,ioos:station:WAVCIS:CSI16:1,2009-03-14T19:00:00Z,29.4012,-89.0355,1010.97,11111222 
WAVCIS,ioos:station:WAVCIS:CSI16:1,2009-03-14T20:00:00Z,29.4012,-89.0355,1010.35,11111222 
WAVCIS,ioos:station:WAVCIS:CSI16:1,2009-03-14T21:00:00Z,29.4012,-89.0355,1010.04,11111222 
WAVCIS,ioos:station:WAVCIS:CSI16:1,2009-03-14T22:00:00Z,29.4012,-89.0355,1010.04,11111222 
WAVCIS,ioos:station:WAVCIS:CSI16:1,2009-03-14T23:00:00Z,29.4012,-89.0355,1010.1,11111222 
WAVCIS,ioos:station:WAVCIS:CSI16:1,2009-03-15T00:00:00Z,29.4012,-89.0355,1010.04,11111222 
WAVCIS,ioos:station:WAVCIS:CSI16:1,2009-03-15T01:00:00Z,29.4012,-89.0355,1010.53,11111222 
WAVCIS,ioos:station:WAVCIS:CSI16:1,2009-03-15T02:00:00Z,29.4012,-89.0355,1010.71,11111222 
WAVCIS,ioos:station:WAVCIS:CSI16:1,2009-03-15T03:00:00Z,29.4012,-89.0355,1011.28,11111222 
WAVCIS,ioos:station:WAVCIS:CSI16:1,2009-03-15T04:00:00Z,29.4012,-89.0355,1011.44,11111222 
WAVCIS,ioos:station:WAVCIS:CSI16:1,2009-03-15T05:00:00Z,29.4012,-89.0355,1011.26,11111222 
WAVCIS,ioos:station:WAVCIS:CSI16:1,2009-03-15T06:00:00Z,29.4012,-89.0355,1010.82,11111222 
WAVCIS,ioos:station:WAVCIS:CSI16:1,2009-03-15T07:00:00Z,29.4012,-89.0355,1010.52,11111222 
WAVCIS,ioos:station:WAVCIS:CSI16:1,2009-03-15T08:00:00Z,29.4012,-89.0355,1010.35,11111222 
WAVCIS,ioos:station:WAVCIS:CSI16:1,2009-03-15T09:00:00Z,29.4012,-89.0355,1010.21,11111222 
WAVCIS,ioos:station:WAVCIS:CSI16:1,2009-03-15T10:00:00Z,29.4012,-89.0355,1010.42,11111222 
WAVCIS,ioos:station:WAVCIS:CSI16:1,2009-03-15T11:00:00Z,29.4012,-89.0355,1010.63,11111222 
WAVCIS,ioos:station:WAVCIS:CSI16:1,2009-03-15T12:00:00Z,29.4012,-89.0355,1010.97,11111222 
WAVCIS,ioos:station:WAVCIS:CSI16:1,2009-03-15T13:00:00Z,29.4012,-89.0355,1011.43,11111222 
WAVCIS,ioos:station:WAVCIS:CSI16:1,2009-03-15T14:00:00Z,29.4012,-89.0355,1011.76,11111222 
WAVCIS,ioos:station:WAVCIS:CSI16:1,2009-03-15T15:00:00Z,29.4012,-89.0355,1012.78,11111222 
WAVCIS,ioos:station:WAVCIS:CSI16:1,2009-03-15T16:00:00Z,29.4012,-89.0355,1013.36,11111222 
WAVCIS,ioos:station:WAVCIS:CSI16:1,2009-03-15T17:00:00Z,29.4012,-89.0355,1013.13,11111222 
WAVCIS,ioos:station:WAVCIS:CSI16:1,2009-03-15T18:00:00Z,29.4012,-89.0355,1013.54,11111222 
WAVCIS,ioos:station:WAVCIS:CSI16:1,2009-03-15T19:00:00Z,29.4012,-89.0355,1013.21,11111222 
WAVCIS,ioos:station:WAVCIS:CSI16:1,2009-03-15T20:00:00Z,29.4012,-89.0355,1012.9,11111222 
WAVCIS,ioos:station:WAVCIS:CSI16:1,2009-03-15T21:00:00Z,29.4012,-89.0355,1012.93,11111222 
WAVCIS,ioos:station:WAVCIS:CSI16:1,2009-03-15T22:00:00Z,29.4012,-89.0355,1013.0,11111222 
WAVCIS,ioos:station:WAVCIS:CSI16:1,2009-03-15T23:00:00Z,29.4012,-89.0355,1013.24,11111222 
WAVCIS,ioos:station:WAVCIS:CSI16:1,2009-03-16T00:00:00Z,29.4012,-89.0355,1013.24,11111222 
WAVCIS,ioos:station:WAVCIS:CSI16:1,2009-03-16T01:00:00Z,29.4012,-89.0355,1013.41,11111222 
WAVCIS,ioos:station:WAVCIS:CSI16:1,2009-03-16T02:00:00Z,29.4012,-89.0355,1013.59,11111222 
WAVCIS,ioos:station:WAVCIS:CSI16:1,2009-03-16T03:00:00Z,29.4012,-89.0355,1013.99,11111222 
WAVCIS,ioos:station:WAVCIS:CSI16:1,2009-03-16T04:00:00Z,29.4012,-89.0355,1014.61,11111222 
WAVCIS,ioos:station:WAVCIS:CSI16:1,2009-03-16T05:00:00Z,29.4012,-89.0355,1014.71,11111222 
WAVCIS,ioos:station:WAVCIS:CSI16:1,2009-03-16T06:00:00Z,29.4012,-89.0355,1014.64,11111222 
WAVCIS,ioos:station:WAVCIS:CSI16:1,2009-03-16T07:00:00Z,29.4012,-89.0355,1014.24,11111222 
WAVCIS,ioos:station:WAVCIS:CSI16:1,2009-03-16T08:00:00Z,29.4012,-89.0355,1014.12,11111222 
WAVCIS,ioos:station:WAVCIS:CSI16:1,2009-03-16T09:00:00Z,29.4012,-89.0355,1014.12,11111222 
WAVCIS,ioos:station:WAVCIS:CSI16:1,2009-03-16T10:00:00Z,29.4012,-89.0355,1014.23,11111222 
WAVCIS,ioos:station:WAVCIS:CSI16:1,2009-03-16T11:00:00Z,29.4012,-89.0355,1014.92,11111222 
WAVCIS,ioos:station:WAVCIS:CSI16:1,2009-03-16T12:00:00Z,29.4012,-89.0355,1015.32,11111222 
WAVCIS,ioos:station:WAVCIS:CSI16:1,2009-03-16T13:00:00Z,29.4012,-89.0355,1015.62,11111222 
WAVCIS,ioos:station:WAVCIS:CSI16:1,2009-03-16T14:00:00Z,29.4012,-89.0355,1016.04,11111222 
WAVCIS,ioos:station:WAVCIS:CSI16:1,2009-03-16T15:00:00Z,29.4012,-89.0355,1015.73,11111222 
WAVCIS,ioos:station:WAVCIS:CSI16:1,2009-03-16T16:00:00Z,29.4012,-89.0355,1017.22,11111222 
WAVCIS,ioos:station:WAVCIS:CSI16:1,2009-03-16T17:00:00Z,29.4012,-89.0355,1017.41,11111222 
WAVCIS,ioos:station:WAVCIS:CSI16:1,2009-03-16T18:00:00Z,29.4012,-89.0355,1017.86,11111222 
WAVCIS,ioos:station:WAVCIS:CSI16:1,2009-03-16T19:00:00Z,29.4012,-89.0355,1016.45,11111222 
WAVCIS,ioos:station:WAVCIS:CSI16:1,2009-03-16T20:00:00Z,29.4012,-89.0355,1015.31,11111222 
WAVCIS,ioos:station:WAVCIS:CSI16:1,2009-03-16T21:00:00Z,29.4012,-89.0355,1015.79,11111222 
WAVCIS,ioos:station:WAVCIS:CSI16:1,2009-03-16T22:00:00Z,29.4012,-89.0355,1015.43,11111222 
WAVCIS,ioos:station:WAVCIS:CSI16:1,2009-03-16T23:00:00Z,29.4012,-89.0355,1015.96,11111222 
WAVCIS,ioos:station:WAVCIS:CSI16:1,2009-03-17T00:00:00Z,29.4012,-89.0355,1016.44,11111222 
WAVCIS,ioos:station:WAVCIS:CSI16:1,2009-03-17T01:00:00Z,29.4012,-89.0355,1016.74,11111222 
WAVCIS,ioos:station:WAVCIS:CSI16:1,2009-03-17T02:00:00Z,29.4012,-89.0355,1016.98,11111222 
WAVCIS,ioos:station:WAVCIS:CSI16:1,2009-03-17T03:00:00Z,29.4012,-89.0355,1017.17,11111222 
WAVCIS,ioos:station:WAVCIS:CSI16:1,2009-03-17T04:00:00Z,29.4012,-89.0355,1017.29,11111222 
WAVCIS,ioos:station:WAVCIS:CSI16:1,2009-03-17T05:00:00Z,29.4012,-89.0355,1017.28,11111222 
WAVCIS,ioos:station:WAVCIS:CSI16:1,2009-03-17T06:00:00Z,29.4012,-89.0355,1016.85,11111222 
WAVCIS,ioos:station:WAVCIS:CSI16:1,2009-03-17T07:00:00Z,29.4012,-89.0355,1016.76,11111222 